Location: Battersea Observatory
(44.4318°N, 76.3841°W)
Time: 22:35:38
(UTC-04:00)

Tiros 1 despin weight - Pass Details

Date: 22 January 2022
Orbit: 592 x 639 km, 48.2° (Epoch: 25 May)

Event Time Altitude Azimuth Distance (km) Brightness Sun altitude
Rises 17:01:04 0° 207° (SSW) 2,863 ? -0.8°
Reaches altitude 10° 17:03:40 10° 194° (SSW) 1,972 ? -1.2°
Maximum altitude 17:07:21 25° 139° (SE) 1,267 ? -1.8°
Drops below altitude 10° 17:11:06 10° 85° (E) 2,006 ? -2.4°
Enters shadow 17:12:58 - 75° (ENE) 2,638 ? -2.7°
Sets 17:13:46 0° 72° (ENE) 2,925 - -2.9°
